{"data":{"norad_id":58669,"epoch":"2026-05-24T23:35:45.295296Z","epoch_age_seconds":83325,"freshness":"FRESH","line1":"1 58669U 23211C   26144.98316314 -.00000383  00000+0 -44004-5 0  9997","line2":"2 58669  43.0023  14.3325 0001188 268.2731  91.7984 15.27556427134137","mean_motion":15.27556427,"eccentricity":0.0001188,"inclination_deg":43.0023,"raan_deg":14.3325,"arg_perigee_deg":268.2731,"mean_anomaly_deg":91.7984,"bstar":-4.4004e-6,"rev_number":13413,"period_min":94.268203422642,"perigee_km":482.30456569578,"apogee_km":483.93480028366,"semimajor_km":6861.2566829897,"source":"CELESTRAK","updated_at":"2026-05-25T13:38:18.710127Z"}}